TimePST,TemperatureF,Dew PointF,Humidity,Sea Level PressureIn,VisibilityMPH,Wind Direction,Wind SpeedMPH,Gust SpeedMPH,PrecipitationIn,Events,Conditions,WindDirDegrees,DateUTC
12:53 AM,39.9,12.0,32,30.30,10.0,Calm,Calm,-,N/A,,Clear,0,2013-01-03 08:53:00
1:53 AM,35.1,10.9,37,30.32,10.0,South,6.9,-,N/A,,Clear,170,2013-01-03 09:53:00
2:53 AM,32.0,14.0,48,30.34,10.0,West,4.6,-,N/A,,Clear,280,2013-01-03 10:53:00
3:53 AM,30.0,12.0,47,30.35,10.0,West,3.5,-,N/A,,Clear,280,2013-01-03 11:53:00
4:53 AM,30.9,12.0,46,30.35,10.0,Calm,Calm,-,N/A,,Clear,0,2013-01-03 12:53:00
5:53 AM,32.0,12.0,44,30.37,10.0,Calm,Calm,-,N/A,,Clear,0,2013-01-03 13:53:00
6:53 AM,30.0,12.9,49,30.39,10.0,West,4.6,-,N/A,,Clear,280,2013-01-03 14:53:00
7:53 AM,33.1,12.0,42,30.42,10.0,Calm,Calm,-,N/A,,Clear,0,2013-01-03 15:53:00
8:53 AM,39.0,12.9,34,30.42,10.0,Calm,Calm,-,N/A,,Clear,0,2013-01-03 16:53:00
9:53 AM,43.0,10.0,26,30.43,10.0,NW,3.5,-,N/A,,Clear,320,2013-01-03 17:53:00
10:53 AM,46.0,9.0,22,30.41,10.0,South,3.5,-,N/A,,Clear,180,2013-01-03 18:53:00
11:53 AM,48.0,6.1,18,30.37,10.0,Calm,Calm,-,N/A,,Clear,0,2013-01-03 19:53:00
12:53 PM,48.9,5.0,17,30.34,10.0,Calm,Calm,-,N/A,,Clear,0,2013-01-03 20:53:00
1:53 PM,51.1,1.9,13,30.34,10.0,East,6.9,-,N/A,,Clear,100,2013-01-03 21:53:00
2:53 PM,51.1,-0.0,12,30.34,10.0,Calm,Calm,-,N/A,,Clear,0,2013-01-03 22:53:00
3:53 PM,51.1,-0.9,12,30.35,10.0,Calm,Calm,-,N/A,,Clear,0,2013-01-03 23:53:00
4:53 PM,46.9,1.0,15,30.36,10.0,South,5.8,-,N/A,,Clear,170,2013-01-04 00:53:00
5:53 PM,46.9,-0.0,14,30.36,10.0,Calm,Calm,-,N/A,,Clear,0,2013-01-04 01:53:00
6:53 PM,41.0,7.0,25,30.37,10.0,WNW,5.8,-,N/A,,Clear,300,2013-01-04 02:53:00
7:53 PM,37.9,9.0,30,30.38,10.0,NNW,4.6,-,N/A,,Clear,330,2013-01-04 03:53:00
8:53 PM,37.0,7.0,29,30.37,10.0,NNW,4.6,-,N/A,,Clear,340,2013-01-04 04:53:00
9:53 PM,35.1,7.0,31,30.38,10.0,North,4.6,-,N/A,,Clear,10,2013-01-04 05:53:00
10:53 PM,33.1,9.0,37,30.38,10.0,NNW,3.5,-,N/A,,Clear,340,2013-01-04 06:53:00
11:53 PM,30.9,9.0,40,30.38,10.0,NNW,3.5,-,N/A,,Clear,340,2013-01-04 07:53:00